Swayam
1 41607U 16040J 19156.85614225 .00001285 00000-0 57048-4 0 9998
2 41607 097.3664 219.1423 0015210 078.7186 281.5759 15.23256355163928
Pratham
1 41783U 16059A 19156.80983027 .00000046 00000-0 18031-4 0 9990
2 41783 098.0683 216.6755 0034820 065.7668 294.7166 14.62993697143667
AlSat 1N
1 41789U 16059G 19156.80946920 .00000051 00000-0 18733-4 0 9992
2 41789 098.0710 218.6410 0029582 056.0017 304.3978 14.64241843143765
ScatSat
1 41790U 16059H 19156.75497622 .00000001 00000-0 11257-4 0 9997
2 41790 098.2101 202.1482 0019616 086.5991 273.7447 14.50879913142451
TY-1
1 41844U 16066D 19156.83831197 .00000545 00000-0 25247-4 0 9990
2 41844 097.4044 164.3613 0013600 230.4329 251.6982 15.24255442142732
Pegasus-1
1 41846U 16066F 19156.51504401 .00000220 00000-0 44917-4 0 9997
2 41846 098.7122 196.5016 0366336 277.5967 078.3761 14.37562322134669
CAS-2T
1 41847U 16066G 19156.66641050 .00000038 00000-0 17245-4 0 9997
2 41847 098.7066 197.1843 0364742 273.7221 082.2337 14.37984985135120
EO-88
1 42017U 17008BX 19156.84100874 .00001233 00000-0 51541-4 0 9993
2 42017 097.4037 224.0669 0005524 199.1301 160.9730 15.25485776127966
ZA-AeroSat
1 42713U 98067LU 19151.03730059 .02928871 12128-4 58594-3 0 9990
2 42713 51.6172 356.2792 0012791 275.7272 84.2292 16.30383675116521
NJUST-1
1 42722U 98067MB 19156.72048615 .00126635 17697-4 28595-3 0 9991
2 42722 051.6330 337.4093 0003089 203.8488 219.3827 15.97382291116365
nSIGHT1
1 42726U 98067MF 19156.79866394 .00020753 00000-0 16714-3 0 9994
2 42726 051.6368 014.6383 0005500 126.7818 233.3685 15.70873457115790
Aoxiang-1
1 42735U 98067MQ 19156.76922230 .00281430 46956-4 39881-3 0 9998
2 42735 051.6242 332.9434 0005481 253.7025 185.8613 16.05095019117550
CAS-4B
1 42759U 17034B 19156.90885523 .00000055 00000-0 16874-4 0 9994
2 42759 043.0197 300.9885 0010324 175.9430 323.3493 15.09577852108909
CAS-4A
1 42761U 17034D 19156.87210253 .00000186 00000-0 24838-4 0 9999
2 42761 043.0198 300.7318 0010895 177.2695 319.0776 15.09656048108892
UCLSat
1 42765U 17036A 19156.85424466 .00000933 00000-0 42959-4 0 9990
2 42765 097.3519 215.1384 0009715 275.7765 084.2364 15.22708955109107
NIUSat
1 42766U 17036B 19156.74213796 .00000687 00000-0 33944-4 0 9991
2 42766 097.3517 213.4848 0013941 265.3556 094.6088 15.21077610108261
LituanicaSAT 2
1 42768U 17036D 19156.11056663 .00001445 00000-0 64823-4 0 9995
2 42768 097.3555 214.0047 0013343 267.2382 092.7327 15.22732465108247
Aalto 1
1 42775U 17036L 19156.70489415 .00000577 00000-0 28804-4 0 9997
2 42775 097.3504 213.7713 0012278 265.3166 094.6668 15.21312994108238
URSA MAIOR
1 42776U 17036M 19156.73254390 .00000622 00000-0 30723-4 0 9997
2 42776 097.3514 213.9414 0012089 265.1026 094.8830 15.21442994108241
Max Valier Sat
1 42778U 17036P 19156.70829105 .00000707 00000-0 33966-4 0 9994
2 42778 097.3553 214.6601 0010586 269.7178 090.2846 15.21987444108263
Pegasus
1 42784U 17036V 19156.15350035 .00000800 00000-0 37530-4 0 9996
2 42784 097.3524 214.2781 0010323 279.2043 080.8025 15.22456029108208
NUDATSat
1 42787U 17036Y 19156.88238887 .00001334 00000-0 58963-4 0 9995
2 42787 097.3542 215.6451 0009791 277.3676 082.6447 15.23402337108198
SUCHAI 1
1 42788U 17036Z 19156.82134378 .00001067 00000-0 48503-4 0 9992
2 42788 097.3528 215.2214 0009877 275.5399 084.4711 15.22866231108395
SKCUBE
1 42789U 17036AA 19156.83628031 .00000999 00000-0 45737-4 0 9997
2 42789 097.3524 215.1816 0009742 275.6119 084.4007 15.22769061108314
VZLUSAT 1
1 42790U 17036AB 19156.73784485 .00001265 00000-0 56074-4 0 9997
2 42790 097.3538 215.5083 0009280 274.9322 085.0855 15.23402848108323
VENTA 1
1 42791U 17036AC 19156.81046817 .00000879 00000-0 40550-4 0 9999
2 42791 097.3523 215.2078 0009404 276.4783 083.5383 15.22785228108307
Robusta 1B
1 42792U 17036AD 19156.83424612 .00001030 00000-0 46811-4 0 9991
2 42792 097.3525 215.3235 0009320 276.4932 083.5244 15.22933185108335
D-SAT
1 42794U 17036AF 19156.11785900 .00000089 00000-0 13173-4 0 9992
2 42794 097.5407 201.4182 0126477 186.1798 173.7868 14.91087021106319
TechnoSat
1 42829U 17042E 19156.72631516 .00000191 00000-0 24637-4 0 9999
2 42829 097.5656 050.1463 0015758 101.8525 258.4462 14.90968174103006
TOMSK-TPU 120
1 42910U 98067MZ 19156.97401427 .00042004 00000-0 19552-3 0 9997
2 42910 051.6357 355.5666 0004927 134.2639 013.9901 15.82903019103017
TANYUSHA 1
1 42911U 98067NA 19156.80795378 .00107832 15695-4 28964-3 0 9999
2 42911 051.6232 346.1334 0003506 181.4330 255.0983 15.94275200103108
TANYUSHA 2
1 42912U 98067NB 19156.74499269 .00067717 00000-0 24147-3 0 9999
2 42912 051.6365 352.0160 0003454 156.0541 263.6028 15.88239258103047
TNS 0-2
1 42914U 98067ND 19156.86490619 .00057696 00000-0 25945-3 0 9996
2 42914 051.6354 356.7562 0003497 137.9553 222.1719 15.83508101102960
QIKCOM-1
1 42983U 98067NF 19156.88185068 .00002870 00000-0 42966-4 0 9990
2 42983 051.6408 044.5391 0004797 081.0497 279.1038 15.58761405091343
AO-91
1 43017U 17073E 19156.73956763 .00000232 00000-0 23864-4 0 9995
2 43017 097.7237 078.6068 0257685 200.3150 158.7664 14.78536627083345
EcAMSat
1 43019U 98067NG 19156.80630829 .00005405 00000-0 68942-4 0 9992
2 43019 051.6416 040.3246 0005211 064.3491 295.8040 15.61093782173716
PICSAT
1 43132U 18004X 19156.76482538 .00000963 00000-0 43309-4 0 9992
2 43132 097.4890 224.6073 0008280 305.9096 054.1372 15.23532651077533
AO-92
1 43137U 18004AC 19156.42709689 .00000760 00000-0 34919-4 0 9991
2 43137 097.4882 224.2587 0007924 309.8495 050.2044 15.23431482077482
TianYi 2
1 43155U 18008A 19156.89776784 .00000274 00000-0 20112-4 0 9996
2 43155 097.4866 229.7071 0018263 014.0198 074.1538 15.11114409075895
Zhou Enlai
1 43156U 18008B 19156.87486108 .00001021 00000-0 65507-4 0 9991
2 43156 097.4916 229.5805 0015353 012.7101 078.0356 15.10622436075862
TianYi 6
1 43158U 18008D 19156.79249128 .00000317 00000-0 23209-4 0 9993
2 43158 097.4865 229.0013 0014351 010.1484 126.4548 15.10214274075819
S-Net G
1 43186U 18014G 19156.78874835 -.00000365 00000-0 -26882-4 0 9994
2 43186 097.7108 065.4301 0012369 052.8304 307.4045 14.96639200073203
S-Net H
1 43187U 18014H 19156.78857739 -.00000365 00000-0 -26896-4 0 9994
2 43187 097.7107 065.4186 0012366 052.8419 307.3930 14.96639373073201
S-Net J
1 43188U 18014J 19156.78836735 -.00000362 00000-0 -26659-4 0 9992
2 43188 097.7109 065.4347 0012366 052.9406 307.2944 14.96639052073208
S-Net K
1 43189U 18014K 19156.78869677 -.00000371 00000-0 -27415-4 0 9995
2 43189 097.7106 065.4163 0012360 052.7244 307.5103 14.96638773071751
FMN 1
1 43192U 18015A 19156.92557172 .00001345 00000-0 57967-4 0 9995
2 43192 097.3970 284.8346 0016089 344.8249 015.2496 15.24216880074374
